Emporia, Virginia, United States (23847)
Lat: 36.69N, Lon: 77.54W
Wx Zone: VAZ087
Local Info
Past Weather Observations for Saturday, January 24, 2015

NOTE: This archive is for the closest National Weather Service station to Emporia. Information may differ from the station used for current weather conditions.

Click here for Long-term Archive

Time Weather Temperature Dewpoint Humidity Pressure Winds Precip Visibility
23:55
Clear
36°F / 2°C 27°F / -3°C 70% 29.77 in
(1008 mb)
SSW 8.1 mph
(SSW 13 kph)
- 10SM
23:35
Clear
36°F / 2°C 27°F / -3°C 70% 29.77 in
(1008 mb)
SW 8.1 mph
(SW 13 kph)
-
23:15
Clear
36°F / 2°C 27°F / -3°C 70% 29.77 in
(1008 mb)
SW 8.1 mph
(SW 13 kph)
- 10SM
22:55
Clear
36°F / 2°C 28°F / -2°C 75% 29.77 in
(1008 mb)
SW 8.1 mph
(SW 13 kph)
- 10SM
22:35
Clear
36°F / 2°C 28°F / -2°C 75% 29.77 in
(1008 mb)
SW 6.9 mph
(SW 11 kph)
- 10SM
22:15
Clear
36°F / 2°C 28°F / -2°C 75% 29.74 in
(1007 mb)
SW 5.8 mph
(SW 9 kph)
- 10SM
21:55
Clear
36°F / 2°C 28°F / -2°C 75% 29.74 in
(1007 mb)
SW 8.1 mph
(SW 13 kph)
-
21:35
Clear
36°F / 2°C 28°F / -2°C 75% 29.74 in
(1007 mb)
SW 8.1 mph
(SW 13 kph)
- 10SM
21:15
Clear
37°F / 3°C 30°F / -1°C 75% 29.74 in
(1007 mb)
SSW 6.9 mph
(SSW 11 kph)
- 10SM
20:55
Clear
37°F / 3°C 30°F / -1°C 75% 29.71 in
(1006 mb)
SW 8.1 mph
(SW 13 kph)
- 10SM
20:35
Clear
37°F / 3°C 30°F / -1°C 75% 29.71 in
(1006 mb)
SSW 5.8 mph
(SSW 9 kph)
- 10SM
20:15
Clear
37°F / 3°C 30°F / -1°C 75% 29.71 in
(1006 mb)
SW 5.8 mph
(SW 9 kph)
- 10SM
19:55
Clear
37°F / 3°C 32°F / 0°C 81% 29.71 in
(1006 mb)
SSW 4.6 mph
(SSW 7 kph)
- 10SM
19:35
Clear
37°F / 3°C 32°F / 0°C 81% 29.68 in
(1005 mb)
SSW 4.6 mph
(SSW 7 kph)
- 10SM
19:15
Clear
37°F / 3°C 34°F / 1°C 87% 29.68 in
(1005 mb)
SW 5.8 mph
(SW 9 kph)
- 10SM
18:55
Clear
37°F / 3°C 36°F / 2°C 93% 29.68 in
(1005 mb)
SSW 4.6 mph
(SSW 7 kph)
- 10SM
18:35
Clear
37°F / 3°C 36°F / 2°C 93% 29.68 in
(1005 mb)
SW 4.6 mph
(SW 7 kph)
- 10SM
18:15
Clear
39°F / 4°C 36°F / 2°C 87% 29.65 in
(1004 mb)
SW 3.5 mph
(SW 6 kph)
- 10SM
17:55
Clear
39°F / 4°C 37°F / 3°C 93% 29.65 in
(1004 mb)
SW 3.5 mph
(SW 6 kph)
- 10SM
17:35
Clear
41°F / 5°C 37°F / 3°C 87% 29.65 in
(1004 mb)
SSW 4.6 mph
(SSW 7 kph)
- 10SM
17:15
Fair
43°F / 6°C 37°F / 3°C 81% 29.62 in
(1003 mb)
SSW 5.8 mph
(SSW 9 kph)
-
16:55
Overcast
43°F / 6°C 39°F / 4°C 87% 29.62 in
(1003 mb)
SSW 3.5 mph
(SSW 6 kph)
- 10SM
16:35
Mostly Cloudy
43°F / 6°C 39°F / 4°C 87% 29.59 in
(1002 mb)
SSW 5.8 mph
(SSW 9 kph)
- 10SM
16:15
Partly Cloudy
43°F / 6°C 39°F / 4°C 87% 29.59 in
(1002 mb)
SW 5.8 mph
(SW 9 kph)
- 10SM
15:55
Overcast
41°F / 5°C 39°F / 4°C 93% 29.59 in
(1002 mb)
SSW 4.6 mph
(SSW 7 kph)
- 10SM
15:35
Fair
41°F / 5°C 39°F / 4°C 93% 29.59 in
(1002 mb)
SSW 4.6 mph
(SSW 7 kph)
-
15:15
Overcast
41°F / 5°C 37°F / 3°C 87% 29.59 in
(1002 mb)
W 5.8 mph
(W 9 kph)
- 10SM
14:55
Overcast
41°F / 5°C 37°F / 3°C 87% 29.56 in
(1001 mb)
W 5.8 mph
(W 9 kph)
0.01 in
(0.25 mm)
14:35
Overcast
Drizzle
39°F / 4°C 37°F / 3°C 93% 29.56 in
(1001 mb)
W 5.8 mph
(W 9 kph)
0.01 in
(0.25 mm)
10SM
14:15
Drizzle
39°F / 4°C 37°F / 3°C 93% 29.56 in
(1001 mb)
SSW 10.4 mph
(SSW 17 kph)
0.01 in
(0.25 mm)
13:55
Overcast
Drizzle
37°F / 3°C 37°F / 3°C 100% 29.56 in
(1001 mb)
SSW 6.9 mph
(SSW 11 kph)
0.03 in
(0.76 mm)
7SM
13:35
Overcast
Rain
37°F / 3°C 37°F / 3°C 100% 29.56 in
(1001 mb)
SSW 5.8 mph
(SSW 9 kph)
0.03 in
(0.76 mm)
7SM
13:15
Overcast
Rain
37°F / 3°C 36°F / 2°C 93% 29.56 in
(1001 mb)
SSW 8.1 mph
(SSW 13 kph)
0.02 in
(0.51 mm)
3SM
12:55
Overcast
37°F / 3°C 36°F / 2°C 93% 29.53 in
(1000 mb)
SSW 9.2 mph
(SSW 15 kph)
- 10SM
12:35
Overcast
37°F / 3°C 36°F / 2°C 93% 29.5 in
(999 mb)
W 9.2 mph
(W 15 kph)
- 10SM
12:15
Overcast
37°F / 3°C 36°F / 2°C 93% 29.5 in
(999 mb)
W 6.9 mph
(W 11 kph)
- 10SM
11:55
Overcast
37°F / 3°C 36°F / 2°C 93% 29.53 in
(1000 mb)
W 10.4 mph
(W 17 kph)
- 10SM
11:35
Overcast
36°F / 2°C 36°F / 2°C 100% 29.53 in
(1000 mb)
W 5.8 mph
(W 9 kph)
-
11:15
Overcast
36°F / 2°C 36°F / 2°C 100% 29.56 in
(1001 mb)
W 8.1 mph
(W 13 kph)
- 10SM
10:55
Overcast
36°F / 2°C 36°F / 2°C 100% 29.5 in
(999 mb)
NW 17.3 mph
(NW 28 kph)
- 10SM
10:35
Overcast
36°F / 2°C 36°F / 2°C 100% 29.5 in
(999 mb)
WNW 8.1 mph
(WNW 13 kph)
-
10:15
Overcast
36°F / 2°C 36°F / 2°C 100% 29.53 in
(1000 mb)
NW 12.7 mph
(NW 20 kph)
- 10SM
09:55
Overcast
Unknown Precip
36°F / 2°C 36°F / 2°C 100% 29.53 in
(1000 mb)
NW 10.4 mph
(NW 17 kph)
0.04 in
(1.02 mm)
10SM
09:35
Overcast
Unknown Precip
36°F / 2°C 36°F / 2°C 100% 29.53 in
(1000 mb)
NW 11.5 mph
(NW 19 kph)
0.04 in
(1.02 mm)
5SM
09:15
Overcast
Unknown Precip
36°F / 2°C 36°F / 2°C 100% 29.59 in
(1002 mb)
W 5.8 mph
(W 9 kph)
0.01 in
(0.25 mm)
08:55
Overcast
Unknown Precip
34°F / 1°C 34°F / 1°C 100% 29.56 in
(1001 mb)
SSW 4.6 mph
(SSW 7 kph)
0.07 in
(1.78 mm)
5SM
08:35
Unknown Precip
34°F / 1°C 34°F / 1°C 100% 29.53 in
(1000 mb)
Calm 0.03 in
(0.76 mm)
08:15
Overcast
Unknown Precip
34°F / 1°C 34°F / 1°C 100% 29.56 in
(1001 mb)
Calm - 10SM
07:55
Overcast
Unknown Precip
34°F / 1°C 34°F / 1°C 100% 29.53 in
(1000 mb)
NW 5.8 mph
(NW 9 kph)
0.07 in
(1.78 mm)
10SM
07:35
Overcast
Light Snow
34°F / 1°C 34°F / 1°C 100% 29.56 in
(1001 mb)
WNW 3.5 mph
(WNW 6 kph)
0.06 in
(1.52 mm)
3SM
07:15
Overcast
Unknown Precip
34°F / 1°C 34°F / 1°C 100% 29.56 in
(1001 mb)
Calm 0.01 in
(0.25 mm)
7SM
06:55
Overcast
Unknown Precip
34°F / 1°C 34°F / 1°C 100% 29.56 in
(1001 mb)
NW 3.5 mph
(NW 6 kph)
0.01 in
(0.25 mm)
7SM
06:35
Overcast
Unknown Precip
34°F / 1°C 34°F / 1°C 100% 29.59 in
(1002 mb)
NW 5.8 mph
(NW 9 kph)
- 10SM
06:15
Overcast
Unknown Precip
34°F / 1°C 34°F / 1°C 100% 29.59 in
(1002 mb)
WNW 3.5 mph
(WNW 6 kph)
- 10SM
05:55
Overcast
34°F / 1°C 34°F / 1°C 100% 29.56 in
(1001 mb)
NW 6.9 mph
(NW 11 kph)
- 10SM
05:35
Overcast
34°F / 1°C 34°F / 1°C 100% 29.59 in
(1002 mb)
NW 5.8 mph
(NW 9 kph)
- 10SM
05:15
Overcast
Unknown Precip
34°F / 1°C 34°F / 1°C 100% 29.59 in
(1002 mb)
NW 6.9 mph
(NW 11 kph)
- 10SM
04:55
Overcast
Unknown Precip
34°F / 1°C 34°F / 1°C 100% 29.62 in
(1003 mb)
NW 11.5 mph
(NW 19 kph)
- 4SM
04:35
Overcast
Unknown Precip
34°F / 1°C 34°F / 1°C 100% 29.65 in
(1004 mb)
NW 8.1 mph
(NW 13 kph)
- 4SM
04:15
Overcast
34°F / 1°C 34°F / 1°C 100% 29.65 in
(1004 mb)
NW 9.2 mph
(NW 15 kph)
- 7SM
03:55
Overcast
34°F / 1°C 34°F / 1°C 100% 29.65 in
(1004 mb)
NW 10.4 mph
(NW 17 kph)
- 7SM
03:35
Overcast
34°F / 1°C 34°F / 1°C 100% 29.65 in
(1004 mb)
NW 10.4 mph
(NW 17 kph)
- 7SM
03:15
Overcast
Unknown Precip
34°F / 1°C 34°F / 1°C 100% 29.65 in
(1004 mb)
NW 10.4 mph
(NW 17 kph)
- 5SM
02:55
Overcast
Unknown Precip
36°F / 2°C 36°F / 2°C 100% 29.68 in
(1005 mb)
NW 11.5 mph
(NW 19 kph)
0.02 in
(0.51 mm)
2 1/2SM
02:35
Overcast
Unknown Precip
36°F / 2°C 36°F / 2°C 100% 29.65 in
(1004 mb)
NW 9.2 mph
(NW 15 kph)
0.01 in
(0.25 mm)
3SM
02:15
Overcast
Unknown Precip
36°F / 2°C 36°F / 2°C 100% 29.68 in
(1005 mb)
NW 10.4 mph
(NW 17 kph)
0.01 in
(0.25 mm)
01:55
Overcast
Unknown Precip
36°F / 2°C 36°F / 2°C 100% 29.68 in
(1005 mb)
NW 10.4 mph
(NW 17 kph)
0.08 in
(2.03 mm)
2SM
01:35
Overcast
Unknown Precip
36°F / 2°C 36°F / 2°C 100% 29.68 in
(1005 mb)
NW 10.4 mph
(NW 17 kph)
0.07 in
(1.78 mm)
2 1/2SM
01:15
Overcast
Unknown Precip
37°F / 3°C 37°F / 3°C 100% 29.68 in
(1005 mb)
NW 6.9 mph
(NW 11 kph)
0.02 in
(0.51 mm)
2 1/2SM
00:55
Overcast
Unknown Precip
37°F / 3°C 37°F / 3°C 100% 29.71 in
(1006 mb)
NW 8.1 mph
(NW 13 kph)
0.04 in
(1.02 mm)
2SM
00:35
Overcast
Drizzle
37°F / 3°C 37°F / 3°C 100% 29.74 in
(1007 mb)
NNW 5.8 mph
(NNW 9 kph)
0.01 in
(0.25 mm)
3SM
00:15
Overcast
Drizzle
37°F / 3°C 37°F / 3°C 100% 29.74 in
(1007 mb)
NNW 3.5 mph
(NNW 6 kph)
0.01 in
(0.25 mm)
3SM
Time Weather Temperature Dewpoint Humidity Pressure Winds Precip Visibility


Weather for websites

WeatherForYou.com, LLC is not responsible for any damages or problems caused by this service. Current weather conditions are obtained from the closest station including government and personal stations which may have varying degrees of accuracy. Weather forecasts are derived from the NOAA NDFD. Like all things, this site belongs to Jesus Christ... He just trusts me to maintain it. If you have any questions or comments email webmaster@weatherforyou.com

Copyright © 2015, WeatherForYou.com LLC. All rights reserved.